| time (UTC) | temp C | wind direction | speed KPH | gust KPH | rain 1hr cm | rain 24hr cm | rain mn cm | humidity % | barometer mb |
| 20260505225537 | 10 | 115 | 12.9 | 25.7 | 0.00 | 0.00 | 0.00 | 83 | 1027.9 |
| 20260505225035 | 10 | 104 | 11.3 | 25.7 | 0.00 | 0.00 | 0.00 | 83 | 1027.9 |
| 20260505224549 | 10 | 72 | 12.9 | 25.7 | 0.00 | 0.00 | 0.00 | 83 | 1027.8 |
| 20260505224036 | 10 | 116 | 11.3 | 27.4 | 0.00 | 0.00 | 0.00 | 83 | 1027.9 |
| 20260505223539 | 10 | 72 | 9.7 | 27.4 | 0.00 | 0.00 | 0.00 | 83 | 1027.7 |
| 20260505223055 | 10 | 81 | 11.3 | 27.4 | 0.00 | 0.00 | 0.00 | 83 | 1027.7 |
| 20260505222536 | 10 | 112 | 9.7 | 30.6 | 0.00 | 0.00 | 0.00 | 83 | 1027.6 |
| 20260505222036 | 10 | 121 | 11.3 | 30.6 | 0.00 | 0.00 | 0.00 | 83 | 1027.6 |
| 20260505221548 | 10 | 96 | 8.0 | 24.1 | 0.00 | 0.00 | 0.00 | 82 | 1027.6 |
| 20260505221035 | 10 | 126 | 9.7 | 24.1 | 0.00 | 0.00 | 0.00 | 82 | 1027.6 |
| 20260505220535 | 10 | 121 | 11.3 | 32.2 | 0.00 | 0.00 | 0.00 | 82 | 1027.6 |
| 20260505220048 | 10 | 118 | 9.7 | 32.2 | 0.00 | 0.00 | 0.00 | 82 | 1027.5 |
| 20260505215535 | 10 | 94 | 12.9 | 25.7 | 0.00 | 0.00 | 0.00 | 82 | 1027.4 |
| 20260505215035 | 10 | 91 | 12.9 | 27.4 | 0.00 | 0.00 | 0.00 | 82 | 1027.4 |
| 20260505214554 | 10 | 68 | 9.7 | 27.4 | 0.00 | 0.00 | 0.00 | 82 | 1027.4 |
| 20260505214035 | 10 | 102 | 11.3 | 24.1 | 0.00 | 0.00 | 0.00 | 82 | 1027.6 |
| 20260505213536 | 11 | 114 | 9.7 | 19.3 | 0.00 | 0.00 | 0.00 | 82 | 1027.4 |
| 20260505213043 | 10 | 110 | 9.7 | 24.1 | 0.00 | 0.00 | 0.00 | 82 | 1027.3 |
| 20260505212536 | 11 | 91 | 9.7 | 24.1 | 0.00 | 0.00 | 0.00 | 82 | 1027.4 |
| 20260505212038 | 11 | 109 | 11.3 | 27.4 | 0.00 | 0.00 | 0.00 | 82 | 1027.4 |
| 20260505211549 | 11 | 98 | 11.3 | 27.4 | 0.00 | 0.00 | 0.00 | 82 | 1027.4 |
| 20260505211036 | 11 | 88 | 11.3 | 32.2 | 0.00 | 0.00 | 0.00 | 82 | 1027.1 |
| 20260505210535 | 11 | 60 | 11.3 | 32.2 | 0.00 | 0.00 | 0.00 | 81 | 1027.1 |
| 20260505210041 | 11 | 107 | 14.5 | 32.2 | 0.00 | 0.00 | 0.00 | 81 | 1027.2 |
| 20260505205536 | 11 | 20 | 14.5 | 29.0 | 0.00 | 0.00 | 0.00 | 81 | 1027.0 |
| 20260505205036 | 11 | 118 | 11.3 | 29.0 | 0.00 | 0.00 | 0.00 | 81 | 1027.1 |
| 20260505204549 | 11 | 93 | 12.9 | 29.0 | 0.00 | 0.00 | 0.00 | 81 | 1027.0 |
| 20260505204035 | 11 | 110 | 12.9 | 25.7 | 0.00 | 0.00 | 0.00 | 81 | 1027.1 |
| 20260505203535 | 11 | 103 | 9.7 | 20.9 | 0.00 | 0.00 | 0.00 | 81 | 1027.0 |
| 20260505203102 | 11 | 115 | 11.3 | 22.5 | 0.00 | 0.00 | 0.00 | 81 | 1027.1 |
| 20260505202536 | 11 | 107 | 9.7 | 22.5 | 0.00 | 0.00 | 0.00 | 81 | 1027.0 |
| 20260505202036 | 11 | 107 | 11.3 | 30.6 | 0.00 | 0.00 | 0.00 | 81 | 1026.8 |
| 20260505201543 | 11 | 71 | 11.3 | 30.6 | 0.00 | 0.00 | 0.00 | 80 | 1026.8 |
| 20260505201037 | 11 | 134 | 11.3 | 29.0 | 0.00 | 0.00 | 0.00 | 80 | 1026.9 |
| 20260505200536 | 11 | 90 | 12.9 | 29.0 | 0.00 | 0.00 | 0.00 | 80 | 1026.8 |
| 20260505200040 | 11 | 107 | 12.9 | 25.7 | 0.00 | 0.00 | 0.00 | 80 | 1026.8 |
| 20260505195539 | 11 | 118 | 11.3 | 27.4 | 0.00 | 0.00 | 0.00 | 80 | 1026.8 |
| 20260505195035 | 11 | 68 | 11.3 | 27.4 | 0.00 | 0.00 | 0.00 | 80 | 1027.0 |
| 20260505194542 | 11 | 126 | 9.7 | 20.9 | 0.00 | 0.00 | 0.00 | 79 | 1026.8 |
| 20260505194037 | 11 | 105 | 9.7 | 22.5 | 0.00 | 0.00 | 0.00 | 79 | 1026.7 |
| 20260505193535 | 11 | 69 | 9.7 | 22.5 | 0.00 | 0.00 | 0.00 | 79 | 1026.8 |
| 20260505193045 | 11 | 83 | 11.3 | 22.5 | 0.00 | 0.00 | 0.00 | 79 | 1026.8 |
| 20260505192538 | 11 | 77 | 9.7 | 24.1 | 0.00 | 0.00 | 0.00 | 79 | 1026.9 |
| 20260505192035 | 11 | 101 | 9.7 | 27.4 | 0.00 | 0.00 | 0.00 | 78 | 1026.9 |
| 20260505191550 | 11 | 123 | 11.3 | 27.4 | 0.00 | 0.00 | 0.00 | 78 | 1026.9 |
| 20260505191034 | 11 | 107 | 9.7 | 25.7 | 0.00 | 0.00 | 0.00 | 78 | 1026.8 |
| 20260505190535 | 11 | 149 | 11.3 | 25.7 | 0.00 | 0.00 | 0.00 | 77 | 1026.8 |
| 20260505190043 | 12 | 99 | 8.0 | 25.7 | 0.00 | 0.00 | 0.00 | 77 | 1026.7 |
| 20260505185539 | 12 | 112 | 9.7 | 25.7 | 0.00 | 0.00 | 0.00 | 77 | 1026.8 |
| 20260505185036 | 12 | 123 | 12.9 | 25.7 | 0.00 | 0.00 | 0.00 | 76 | 1026.7 |
| 20260505184547 | 12 | 77 | 9.7 | 24.1 | 0.00 | 0.00 | 0.00 | 76 | 1026.8 |
| 20260505184036 | 12 | 122 | 11.3 | 25.7 | 0.00 | 0.00 | 0.00 | 76 | 1026.7 |
| 20260505183537 | 12 | 105 | 9.7 | 25.7 | 0.00 | 0.00 | 0.00 | 76 | 1026.7 |
| 20260505183045 | 12 | 94 | 9.7 | 25.7 | 0.00 | 0.00 | 0.00 | 75 | 1026.7 |
| 20260505182538 | 12 | 110 | 9.7 | 25.7 | 0.00 | 0.00 | 0.00 | 75 | 1026.8 |
| 20260505182035 | 12 | 104 | 11.3 | 24.1 | 0.00 | 0.00 | 0.00 | 75 | 1026.8 |
| 20260505181540 | 12 | 81 | 12.9 | 25.7 | 0.00 | 0.00 | 0.00 | 74 | 1026.7 |
| 20260505181039 | 12 | 80 | 11.3 | 25.7 | 0.00 | 0.00 | 0.00 | 74 | 1026.7 |
| 20260505180539 | 12 | 91 | 12.9 | 25.7 | 0.00 | 0.00 | 0.00 | 74 | 1026.7 |
| 20260505180042 | 12 | 97 | 9.7 | 30.6 | 0.00 | 0.00 | 0.00 | 74 | 1026.7 |
| 20260505175537 | 12 | 145 | 16.1 | 30.6 | 0.00 | 0.00 | 0.00 | 74 | 1026.6 |
| 20260505175035 | 12 | 118 | 11.3 | 29.0 | 0.00 | 0.00 | 0.00 | 73 | 1026.6 |
| 20260505174544 | 12 | 111 | 9.7 | 29.0 | 0.00 | 0.00 | 0.00 | 73 | 1026.6 |
| 20260505174036 | 12 | 97 | 9.7 | 30.6 | 0.00 | 0.00 | 0.00 | 73 | 1026.5 |
| 20260505173535 | 12 | 88 | 12.9 | 30.6 | 0.00 | 0.00 | 0.00 | 73 | 1026.5 |
| 20260505173039 | 12 | 60 | 14.5 | 27.4 | 0.00 | 0.00 | 0.00 | 72 | 1026.5 |
| 20260505172535 | 12 | 88 | 11.3 | 27.4 | 0.00 | 0.00 | 0.00 | 72 | 1026.5 |
| 20260505172035 | 13 | 109 | 12.9 | 30.6 | 0.00 | 0.00 | 0.00 | 72 | 1026.5 |
| 20260505171540 | 13 | 103 | 12.9 | 30.6 | 0.00 | 0.00 | 0.00 | 72 | 1026.5 |
| 20260505171036 | 13 | 66 | 12.9 | 30.6 | 0.00 | 0.00 | 0.00 | 72 | 1026.4 |
| 20260505170535 | 13 | 109 | 12.9 | 30.6 | 0.00 | 0.00 | 0.00 | 71 | 1026.3 |
| 20260505170040 | 13 | 100 | 11.3 | 32.2 | 0.00 | 0.00 | 0.00 | 71 | 1026.3 |
| 20260505165535 | 13 | 79 | 11.3 | 32.2 | 0.00 | 0.00 | 0.00 | 71 | 1026.3 |
| 20260505165037 | 13 | 72 | 12.9 | 25.7 | 0.00 | 0.00 | 0.00 | 71 | 1026.3 |
| 20260505164540 | 13 | 72 | 9.7 | 25.7 | 0.00 | 0.00 | 0.00 | 70 | 1026.4 |
| 20260505164036 | 13 | 125 | 11.3 | 25.7 | 0.00 | 0.00 | 0.00 | 70 | 1026.3 |
| 20260505163537 | 13 | 131 | 11.3 | 25.7 | 0.00 | 0.00 | 0.00 | 70 | 1026.2 |
| 20260505163046 | 13 | 122 | 9.7 | 25.7 | 0.00 | 0.00 | 0.00 | 70 | 1026.3 |
| 20260505162539 | 13 | 118 | 9.7 | 29.0 | 0.00 | 0.00 | 0.00 | 70 | 1026.2 |
| 20260505162035 | 14 | 67 | 9.7 | 29.0 | 0.00 | 0.00 | 0.00 | 69 | 1026.2 |
| 20260505161546 | 14 | 91 | 9.7 | 29.0 | 0.00 | 0.00 | 0.00 | 69 | 1026.1 |
| 20260505161036 | 14 | 82 | 9.7 | 24.1 | 0.00 | 0.00 | 0.00 | 69 | 1026.2 |
| 20260505160535 | 14 | 116 | 12.9 | 24.1 | 0.00 | 0.00 | 0.00 | 68 | 1026.0 |
| 20260505153053 | 15 | 130 | 8.0 | 20.9 | 0.00 | 0.00 | 0.00 | 67 | 1026.1 |
| 20260505152536 | 15 | 139 | 8.0 | 20.9 | 0.00 | 0.00 | 0.00 | 66 | 1026.1 |
| 20260505152035 | 15 | 89 | 6.4 | 20.9 | 0.00 | 0.00 | 0.00 | 66 | 1026.2 |
| 20260505151545 | 15 | 119 | 6.4 | 20.9 | 0.00 | 0.00 | 0.00 | 66 | 1026.1 |
| 20260505151035 | 15 | 133 | 6.4 | 24.1 | 0.00 | 0.00 | 0.00 | 66 | 1026.2 |
| 20260505150535 | 15 | 120 | 4.8 | 24.1 | 0.00 | 0.00 | 0.00 | 67 | 1026.1 |
| 20260505140535 | 15 | 122 | 4.8 | 12.9 | 0.00 | 0.00 | 0.00 | 66 | 1026.4 |
| 20260505125035 | 15 | 104 | 1.6 | 6.4 | 0.00 | 0.00 | 0.00 | 65 | 1026.4 |
| 20260505124551 | 15 | 99 | 1.6 | 8.0 | 0.00 | 0.00 | 0.00 | 66 | 1026.4 |
| 20260505124035 | 15 | 71 | 1.6 | 8.0 | 0.00 | 0.00 | 0.00 | 65 | 1026.3 |
| 20260505123536 | 15 | 0 | 0.0 | 6.4 | 0.00 | 0.00 | 0.00 | 66 | 1026.2 |
| 20260505123039 | 15 | 0 | 0.0 | 6.4 | 0.00 | 0.00 | 0.00 | 66 | 1026.3 |
| 20260505122535 | 15 | 105 | 0.0 | 3.2 | 0.00 | 0.00 | 0.00 | 66 | 1026.2 |
| 20260505122036 | 15 | 121 | 0.0 | 1.6 | 0.00 | 0.00 | 0.00 | 66 | 1026.2 |
| 20260505121548 | 15 | 0 | 0.0 | 0.0 | 0.00 | 0.00 | 0.00 | 67 | 1026.2 |
| 20260505121036 | 15 | 0 | 0.0 | 3.2 | 0.00 | 0.00 | 0.00 | 68 | 1026.2 |
| 20260505120536 | 15 | 0 | 0.0 | 3.2 | 0.00 | 0.00 | 0.00 | 68 | 1026.2 |
| 20260505120043 | 15 | 132 | 0.0 | 4.8 | 0.00 | 0.00 | 0.00 | 68 | 1026.2 |
| 20260505115534 | 15 | 132 | 1.6 | 4.8 | 0.00 | 0.00 | 0.00 | 68 | 1026.2 |
| 20260505115034 | 15 | 94 | 0.0 | 4.8 | 0.00 | 0.00 | 0.00 | 69 | 1026.3 |
| 20260505114540 | 15 | 0 | 0.0 | 0.0 | 0.00 | 0.00 | 0.00 | 70 | 1026.1 |
| 20260505114036 | 15 | 0 | 0.0 | 0.0 | 0.00 | 0.00 | 0.00 | 73 | 1026.1 |
| 20260505113535 | 14 | 0 | 0.0 | 0.0 | 0.00 | 0.00 | 0.00 | 75 | 1026.2 |
| 20260505113048 | 15 | 0 | 0.0 | 0.0 | 0.00 | 0.00 | 0.00 | 76 | 1026.2 |
| 20260505112535 | 15 | 0 | 0.0 | 0.0 | 0.00 | 0.00 | 0.00 | 76 | 1026.2 |
| 20260505112035 | 15 | 0 | 0.0 | 0.0 | 0.00 | 0.00 | 0.00 | 76 | 1026.2 |
| 20260505111545 | 15 | 0 | 0.0 | 0.0 | 0.00 | 0.00 | 0.00 | 76 | 1026.1 |
| 20260505111038 | 15 | 0 | 0.0 | 0.0 | 0.00 | 0.00 | 0.00 | 76 | 1026.0 |
| 20260505110534 | 15 | 0 | 0.0 | 0.0 | 0.00 | 0.00 | 0.00 | 75 | 1026.0 |
| 20260505102035 | 16 | 193 | 1.6 | 6.4 | 0.00 | 0.00 | 0.00 | 73 | 1025.6 |
| 20260505101546 | 16 | 0 | 0.0 | 4.8 | 0.00 | 0.00 | 0.00 | 72 | 1025.7 |
| 20260505101035 | 16 | 0 | 0.0 | 4.8 | 0.00 | 0.00 | 0.00 | 72 | 1025.6 |
| 20260505100535 | 16 | 180 | 0.0 | 4.8 | 0.00 | 0.00 | 0.00 | 71 | 1025.5 |
| 20260505100043 | 17 | 0 | 0.0 | 0.0 | 0.00 | 0.00 | 0.00 | 71 | 1025.5 |
| 20260505095535 | 17 | 0 | 0.0 | 6.4 | 0.00 | 0.00 | 0.00 | 70 | 1025.5 |
| 20260505095034 | 17 | 0 | 0.0 | 6.4 | 0.00 | 0.00 | 0.00 | 69 | 1025.4 |
| 20260505094538 | 17 | 161 | 0.0 | 0.0 | 0.00 | 0.00 | 0.00 | 67 | 1025.5 |
| 20260505094034 | 17 | 0 | 0.0 | 0.0 | 0.00 | 0.00 | 0.00 | 67 | 1025.5 |
| 20260505093535 | 17 | 0 | 0.0 | 0.0 | 0.00 | 0.00 | 0.00 | 67 | 1025.4 |
| 20260505093050 | 17 | 0 | 0.0 | 0.0 | 0.00 | 0.00 | 0.00 | 66 | 1025.3 |
| 20260505092535 | 18 | 0 | 0.0 | 0.0 | 0.00 | 0.00 | 0.00 | 64 | 1025.3 |
| 20260505092037 | 18 | 0 | 0.0 | 0.0 | 0.00 | 0.00 | 0.00 | 63 | 1025.3 |
| 20260505091539 | 18 | 0 | 0.0 | 3.2 | 0.00 | 0.00 | 0.00 | 62 | 1025.3 |
| 20260505091034 | 18 | 0 | 0.0 | 6.4 | 0.00 | 0.00 | 0.00 | 60 | 1025.2 |
| 20260505090535 | 18 | 0 | 0.0 | 6.4 | 0.00 | 0.00 | 0.00 | 61 | 1025.1 |
| 20260505090039 | 19 | 0 | 0.0 | 0.0 | 0.00 | 0.00 | 0.00 | 62 | 1025.2 |
| 20260505085537 | 19 | 0 | 0.0 | 0.0 | 0.00 | 0.00 | 0.00 | 61 | 1025.2 |
| 20260505085035 | 20 | 0 | 0.0 | 0.0 | 0.00 | 0.00 | 0.00 | 59 | 1025.1 |
| 20260505084538 | 20 | 0 | 0.0 | 0.0 | 0.00 | 0.00 | 0.00 | 58 | 1025.1 |
| 20260505084035 | 20 | 0 | 0.0 | 6.4 | 0.00 | 0.00 | 0.00 | 57 | 1025.1 |
| 20260505083538 | 20 | 0 | 0.0 | 6.4 | 0.00 | 0.00 | 0.00 | 55 | 1025.1 |
| 20260505083047 | 20 | 201 | 1.6 | 8.0 | 0.00 | 0.00 | 0.00 | 54 | 1025.2 |
| 20260505082536 | 21 | 156 | 0.0 | 8.0 | 0.00 | 0.00 | 0.00 | 53 | 1025.1 |
| 20260505082036 | 21 | 166 | 1.6 | 6.4 | 0.00 | 0.00 | 0.00 | 53 | 1025.1 |
| 20260505081540 | 21 | 243 | 1.6 | 8.0 | 0.00 | 0.00 | 0.00 | 53 | 1025.2 |
| 20260505081035 | 21 | 0 | 1.6 | 8.0 | 0.00 | 0.00 | 0.00 | 51 | 1024.9 |
| 20260505080536 | 21 | 0 | 1.6 | 8.0 | 0.00 | 0.00 | 0.00 | 52 | 1025.0 |
| 20260505080042 | 21 | 0 | 0.0 | 9.7 | 0.00 | 0.00 | 0.00 | 53 | 1025.1 |
| 20260505075534 | 21 | 220 | 3.2 | 9.7 | 0.00 | 0.00 | 0.00 | 51 | 1025.0 |
| 20260505075034 | 21 | 76 | 4.8 | 9.7 | 0.00 | 0.00 | 0.00 | 51 | 1024.9 |
| 20260505074540 | 22 | 139 | 1.6 | 8.0 | 0.00 | 0.00 | 0.00 | 51 | 1024.9 |
| 20260505074035 | 22 | 0 | 1.6 | 8.0 | 0.00 | 0.00 | 0.00 | 51 | 1025.0 |
| 20260505073535 | 22 | 206 | 0.0 | 8.0 | 0.00 | 0.00 | 0.00 | 50 | 1025.0 |
| 20260505073049 | 22 | 210 | 3.2 | 6.4 | 0.00 | 0.00 | 0.00 | 50 | 1024.9 |
| 20260505072535 | 22 | 0 | 1.6 | 4.8 | 0.00 | 0.00 | 0.00 | 48 | 1025.0 |
| 20260505072035 | 22 | 156 | 0.0 | 6.4 | 0.00 | 0.00 | 0.00 | 49 | 1025.0 |
| 20260505071542 | 22 | 0 | 0.0 | 6.4 | 0.00 | 0.00 | 0.00 | 51 | 1024.9 |
| 20260505071035 | 22 | 172 | 0.0 | 6.4 | 0.00 | 0.00 | 0.00 | 49 | 1025.0 |
| 20260505070535 | 22 | 93 | 1.6 | 8.0 | 0.00 | 0.00 | 0.00 | 49 | 1025.1 |
| 20260505070059 | 22 | 253 | 1.6 | 12.9 | 0.00 | 0.00 | 0.00 | 49 | 1025.0 |
| 20260505065536 | 22 | 215 | 1.6 | 12.9 | 0.00 | 0.00 | 0.00 | 49 | 1025.0 |
| 20260505065035 | 22 | 120 | 4.8 | 12.9 | 0.00 | 0.00 | 0.00 | 50 | 1024.9 |
| 20260505064540 | 22 | 124 | 1.6 | 8.0 | 0.00 | 0.00 | 0.00 | 51 | 1024.9 |
| 20260505064034 | 22 | 0 | 3.2 | 8.0 | 0.00 | 0.00 | 0.00 | 50 | 1024.9 |
| 20260505063534 | 22 | 314 | 1.6 | 6.4 | 0.00 | 0.00 | 0.00 | 48 | 1024.9 |
| 20260505063042 | 22 | 27 | 1.6 | 14.5 | 0.00 | 0.00 | 0.00 | 47 | 1024.9 |
| 20260505062535 | 22 | 212 | 3.2 | 14.5 | 0.00 | 0.00 | 0.00 | 49 | 1024.9 |
| 20260505062037 | 22 | 83 | 1.6 | 9.7 | 0.00 | 0.00 | 0.00 | 48 | 1024.9 |
| 20260505061611 | 21 | 81 | 3.2 | 9.7 | 0.00 | 0.00 | 0.00 | 49 | 1024.9 |
| 20260505061035 | 22 | 70 | 1.6 | 9.7 | 0.00 | 0.00 | 0.00 | 47 | 1024.8 |
| 20260505060536 | 22 | 59 | 1.6 | 11.3 | 0.00 | 0.00 | 0.00 | 50 | 1024.9 |
| 20260505060052 | 22 | 89 | 3.2 | 11.3 | 0.00 | 0.00 | 0.00 | 49 | 1024.9 |
| 20260505055535 | 22 | 208 | 1.6 | 9.7 | 0.00 | 0.00 | 0.00 | 50 | 1024.8 |
| 20260505055037 | 22 | 92 | 1.6 | 8.0 | 0.00 | 0.00 | 0.00 | 50 | 1024.9 |
| 20260505054548 | 21 | 151 | 1.6 | 6.4 | 0.00 | 0.00 | 0.00 | 51 | 1024.9 |
| 20260505054034 | 21 | 115 | 0.0 | 4.8 | 0.00 | 0.00 | 0.00 | 51 | 1024.9 |
| 20260505053534 | 21 | 0 | 1.6 | 4.8 | 0.00 | 0.00 | 0.00 | 50 | 1024.8 |
| 20260505053040 | 21 | 168 | 0.0 | 6.4 | 0.00 | 0.00 | 0.00 | 50 | 1024.9 |
| 20260505052534 | 21 | 0 | 0.0 | 6.4 | 0.00 | 0.00 | 0.00 | 51 | 1024.9 |
| 20260505052035 | 21 | 203 | 1.6 | 6.4 | 0.00 | 0.00 | 0.00 | 52 | 1025.0 |
| 20260505051543 | 21 | 91 | 1.6 | 6.4 | 0.00 | 0.00 | 0.00 | 50 | 1025.0 |
| 20260505051035 | 21 | 111 | 3.2 | 6.4 | 0.00 | 0.00 | 0.00 | 50 | 1025.3 |
| 20260505050534 | 22 | 126 | 1.6 | 8.0 | 0.00 | 0.00 | 0.00 | 51 | 1025.2 |
| 20260505041548 | 21 | 0 | 1.6 | 8.0 | 0.00 | 0.00 | 0.00 | 56 | 1026.0 |
| 20260505041039 | 21 | 338 | 3.2 | 11.3 | 0.00 | 0.00 | 0.00 | 58 | 1026.2 |
| 20260505040535 | 20 | 47 | 3.2 | 11.3 | 0.00 | 0.00 | 0.00 | 60 | 1026.1 |
| 20260505040059 | 20 | 81 | 1.6 | 12.9 | 0.00 | 0.00 | 0.00 | 58 | 1026.2 |
| 20260505035535 | 20 | 82 | 1.6 | 14.5 | 0.00 | 0.00 | 0.00 | 59 | 1026.3 |
| 20260505035037 | 20 | 87 | 6.4 | 14.5 | 0.00 | 0.00 | 0.00 | 60 | 1026.5 |
| 20260505034544 | 19 | 53 | 4.8 | 14.5 | 0.00 | 0.00 | 0.00 | 60 | 1026.5 |
| 20260505034035 | 19 | 90 | 6.4 | 12.9 | 0.00 | 0.00 | 0.00 | 61 | 1026.6 |
| 20260505033535 | 20 | 62 | 1.6 | 12.9 | 0.00 | 0.00 | 0.00 | 61 | 1026.6 |
| 20260505033100 | 20 | 64 | 1.6 | 12.9 | 0.00 | 0.00 | 0.00 | 60 | 1026.7 |
| 20260505032535 | 19 | 42 | 4.8 | 12.9 | 0.00 | 0.00 | 0.00 | 62 | 1026.7 |
| 20260505032036 | 19 | 37 | 1.6 | 12.9 | 0.00 | 0.00 | 0.00 | 63 | 1026.8 |
| 20260505031551 | 18 | 99 | 3.2 | 14.5 | 0.00 | 0.00 | 0.00 | 62 | 1026.7 |
| 20260505031034 | 18 | 74 | 3.2 | 14.5 | 0.00 | 0.00 | 0.00 | 64 | 1026.8 |
| 20260505030534 | 18 | 68 | 4.8 | 14.5 | 0.00 | 0.00 | 0.00 | 64 | 1026.7 |
| 20260505030043 | 18 | 121 | 3.2 | 12.9 | 0.00 | 0.00 | 0.00 | 64 | 1026.7 |
| 20260505025534 | 18 | 79 | 4.8 | 16.1 | 0.00 | 0.00 | 0.00 | 65 | 1026.8 |
| 20260505025038 | 17 | 337 | 6.4 | 17.7 | 0.00 | 0.00 | 0.00 | 66 | 1026.8 |
| 20260505024543 | 17 | 38 | 4.8 | 17.7 | 0.00 | 0.00 | 0.00 | 66 | 1026.8 |
| 20260505024035 | 17 | 12 | 4.8 | 19.3 | 0.00 | 0.00 | 0.00 | 67 | 1026.8 |
| 20260505023535 | 17 | 43 | 8.0 | 20.9 | 0.00 | 0.00 | 0.00 | 68 | 1026.7 |
| 20260505023043 | 17 | 68 | 8.0 | 20.9 | 0.00 | 0.00 | 0.00 | 68 | 1026.8 |
| 20260505022535 | 16 | 41 | 6.4 | 17.7 | 0.00 | 0.00 | 0.00 | 68 | 1026.8 |
| 20260505022035 | 16 | 95 | 8.0 | 17.7 | 0.00 | 0.00 | 0.00 | 69 | 1026.8 |
| 20260505021539 | 16 | 44 | 8.0 | 17.7 | 0.00 | 0.00 | 0.00 | 69 | 1026.7 |
| 20260505021035 | 16 | 62 | 8.0 | 17.7 | 0.00 | 0.00 | 0.00 | 70 | 1026.7 |
| 20260505020534 | 16 | 102 | 8.0 | 19.3 | 0.00 | 0.00 | 0.00 | 71 | 1026.8 |
| 20260505020042 | 16 | 81 | 8.0 | 22.5 | 0.00 | 0.00 | 0.00 | 71 | 1026.8 |
| 20260505015534 | 16 | 56 | 8.0 | 22.5 | 0.00 | 0.00 | 0.00 | 70 | 1026.8 |
| 20260505015034 | 15 | 91 | 9.7 | 24.1 | 0.00 | 0.00 | 0.00 | 71 | 1026.8 |
| 20260505014546 | 15 | 64 | 9.7 | 24.1 | 0.00 | 0.00 | 0.00 | 71 | 1026.7 |
| 20260505014035 | 15 | 74 | 9.7 | 24.1 | 0.00 | 0.00 | 0.00 | 71 | 1026.8 |
| 20260505013534 | 15 | 64 | 9.7 | 20.9 | 0.00 | 0.00 | 0.00 | 71 | 1026.7 |
| 20260505013043 | 15 | 56 | 4.8 | 20.9 | 0.00 | 0.00 | 0.00 | 72 | 1026.7 |
| 20260505012535 | 15 | 70 | 9.7 | 20.9 | 0.00 | 0.00 | 0.00 | 72 | 1026.8 |
| 20260505012037 | 15 | 74 | 8.0 | 24.1 | 0.00 | 0.00 | 0.00 | 72 | 1026.7 |
| 20260505011551 | 15 | 73 | 11.3 | 24.1 | 0.00 | 0.00 | 0.00 | 72 | 1026.7 |
| 20260505011034 | 14 | 83 | 11.3 | 27.4 | 0.00 | 0.00 | 0.00 | 73 | 1026.7 |
| 20260505010535 | 14 | 92 | 12.9 | 27.4 | 0.00 | 0.00 | 0.00 | 73 | 1026.7 |
| 20260505010050 | 14 | 101 | 11.3 | 22.5 | 0.00 | 0.00 | 0.00 | 73 | 1026.9 |
| 20260505005535 | 13 | 70 | 9.7 | 24.1 | 0.00 | 0.00 | 0.00 | 74 | 1026.8 |
| 20260505005035 | 13 | 81 | 11.3 | 29.0 | 0.00 | 0.00 | 0.00 | 74 | 1026.9 |
| 20260505004538 | 13 | 87 | 8.0 | 29.0 | 0.00 | 0.00 | 0.00 | 75 | 1026.8 |
| 20260505004034 | 13 | 80 | 12.9 | 32.2 | 0.00 | 0.00 | 0.00 | 75 | 1026.8 |
| 20260505003534 | 13 | 43 | 14.5 | 32.2 | 0.00 | 0.00 | 0.00 | 75 | 1026.7 |
| 20260505003039 | 13 | 145 | 14.5 | 27.4 | 0.00 | 0.00 | 0.00 | 76 | 1026.9 |
| 20260505002534 | 12 | 72 | 12.9 | 32.2 | 0.00 | 0.00 | 0.00 | 77 | 1026.6 |
| 20260505002035 | 12 | 30 | 14.5 | 38.6 | 0.00 | 0.00 | 0.00 | 77 | 1026.6 |
| 20260505001542 | 12 | 43 | 14.5 | 38.6 | 0.00 | 0.00 | 0.00 | 78 | 1026.4 |
| 20260505001034 | 12 | 77 | 12.9 | 29.0 | 0.00 | 0.00 | 0.00 | 80 | 1026.4 |
| 20260505000534 | 11 | 88 | 12.9 | 25.7 | 0.00 | 0.00 | 0.00 | 81 | 1026.5 |
| 20260505000049 | 11 | 84 | 11.3 | 25.7 | 0.00 | 0.00 | 0.00 | 81 | 1026.2 |
| 20260504235535 | 11 | 79 | 11.3 | 29.0 | 0.00 | 0.00 | 0.00 | 82 | 1026.4 |
| 20260504235035 | 11 | 105 | 11.3 | 29.0 | 0.00 | 0.00 | 0.00 | 82 | 1026.2 |
| 20260504234552 | 11 | 120 | 11.3 | 25.7 | 0.00 | 0.00 | 0.00 | 82 | 1026.1 |
| 20260504234034 | 11 | 122 | 14.5 | 27.4 | 0.00 | 0.00 | 0.00 | 82 | 1026.1 |
| 20260504233535 | 11 | 79 | 12.9 | 27.4 | 0.00 | 0.00 | 0.00 | 83 | 1026.1 |
| 20260504233049 | 11 | 70 | 12.9 | 30.6 | 0.00 | 0.00 | 0.00 | 83 | 1026.1 |
| 20260504232535 | 11 | 93 | 9.7 | 30.6 | 0.00 | 0.00 | 0.00 | 83 | 1026.1 |
| 20260504232034 | 11 | 102 | 12.9 | 24.1 | 0.00 | 0.00 | 0.00 | 83 | 1026.0 |
| 20260504231543 | 11 | 78 | 11.3 | 29.0 | 0.00 | 0.00 | 0.00 | 83 | 1025.9 |
| 20260504231034 | 11 | 64 | 12.9 | 29.0 | 0.00 | 0.00 | 0.00 | 83 | 1025.9 |
| 20260504230535 | 10 | 105 | 12.9 | 27.4 | 0.00 | 0.00 | 0.00 | 83 | 1025.7 |
| 20260504230044 | 10 | 120 | 12.9 | 27.4 | 0.00 | 0.00 | 0.00 | 83 | 1025.7 |